アトラス彗星

C/2017 K4 ( ATLAS )

English version
Home page
Updated on November 7, 2017

---------------------------------------------------------------------

・ プロフィール

発見日 2017年5月26日
発見光度 17.0等
発見者 Asteroid Terrestrial-impact Last Alert System (ATLAS) Team

・ 写真集

・ 軌道要素

Epoch 2018 Jan. 2.0 TT = JDT 2458120.5
T 2018 Jan. 8.03079 TT                                  MPCW
q   2.6481373            (2000.0)            P               Q
n   0.00662107     Peri.   15.10605     +0.68511463     +0.68372729
a  28.0877792      Node   298.89833     -0.69454573     +0.50915914
e   0.9057192      Incl.   16.67873     -0.21960004     +0.52275613
P 149
From 218 observations 2017 May 26-Sept. 18, mean residual 0".4.

・ 星図

・ 光度変化

        m1 = 9.0 + 5 logΔ + 10.0 log r

---------------------------------------------------------------------

軌道要素はM.P.E.C. 2017-T14に掲載されたものです。
星図はステラナビゲータ Ver.10 (アストロアーツ) で作成したものです。
光度グラフはComet for Windowsで作成したものです。

---------------------------------------------------------------------

Copyright(C) Seiichi Yoshida (comet@aerith.net). All rights reserved.